GFSSW_925_thetae_132.txt.gz
Theta_e
311 310 310 310 309 309 309 309 310 310 310 310 309 310 309 309 309 309 308 308 307 308 312 314 315 316 310 307 306 305 306 306 307 309 309 311 313 314 315 315 314 345 350 347 350
309 309 309 309 308 308 308 308 308 309 309 309 309 309 309 308 308 309 305 306 308 308 312 314 312 308 308 306 304 305 304 305 307 308 311 311 311 312 313 313 314 330 348 349 350
309 309 309 309 308 308 308 308 308 308 308 308 309 308 308 308 305 306 317 317 317 315 316 314 312 307 307 303 303 304 307 306 309 310 309 311 311 311 312 311 313 316 349 348 349
308 308 308 309 308 308 308 307 308 308 308 307 307 307 307 307 305 312 322 317 311 318 318 315 309 308 307 305 303 305 304 307 307 309 311 311 312 311 310 311 312 326 344 349 350
306 306 306 306 306 306 306 306 306 306 307 307 307 307 308 308 308 308 320 309 311 319 317 315 311 308 308 306 306 305 307 305 306 306 307 307 309 310 310 311 311 311 323 347 349
304 304 304 304 304 304 304 302 303 305 305 306 307 307 309 308 306 306 306 306 313 318 316 316 312 308 307 306 307 307 306 308 307 307 307 308 309 309 310 311 311 311 319 342 348
304 304 304 304 304 304 304 304 303 304 305 306 306 308 308 307 306 306 307 308 316 318 316 317 314 311 308 309 306 307 308 307 306 307 308 307 308 308 310 310 310 316 340 345 346
303 303 303 301 300 303 305 304 302 305 306 306 307 307 309 307 306 307 306 306 308 310 308 312 316 313 308 309 310 308 306 307 306 306 307 308 309 309 309 310 311 311 336 344 343
303 302 302 303 301 303 304 304 304 305 307 308 307 308 307 307 309 308 308 307 307 307 307 309 316 316 313 312 310 310 312 307 310 306 308 307 308 309 309 309 311 310 330 342 340
302 302 301 302 302 303 303 304 302 307 307 307 308 309 306 308 310 312 313 308 308 309 308 309 315 316 315 313 320 311 314 314 311 309 307 307 308 310 310 310 310 309 311 337 339
302 302 301 302 302 303 303 302 298 301 306 307 308 309 308 310 311 312 312 309 310 310 309 311 320 321 319 318 315 310 312 312 311 312 310 307 307 307 307 308 308 308 309 309 333
302 302 302 302 303 302 302 301 302 302 302 302 303 305 307 306 308 307 311 313 313 316 309 315 321 318 317 317 317 312 314 313 312 311 309 310 309 308 308 308 307 308 308 309 311
300 302 303 304 302 302 301 301 301 301 301 302 303 304 305 306 307 308 309 314 315 318 309 314 317 317 316 316 315 315 315 312 313 312 311 312 310 311 311 308 308 308 308 309 309
301 302 304 303 303 302 302 303 301 301 301 302 306 308 309 311 312 310 309 310 315 317 313 313 314 317 318 318 315 315 316 313 313 311 312 310 310 311 311 310 310 308 307 307 308
302 303 303 302 303 302 304 303 303 302 305 302 310 308 313 314 313 315 314 312 313 314 319 319 318 319 319 318 317 316 317 316 316 311 311 311 310 310 311 314 312 315 319 321 319
302 302 302 303 302 304 304 303 302 309 307 305 307 310 311 310 312 316 317 313 313 312 316 316 318 318 320 318 317 316 317 316 310 308 311 309 310 309 312 324 320 320 325 325 324
302 301 302 301 302 302 302 304 309 308 304 306 309 311 311 312 313 315 317 316 317 317 317 320 321 319 320 320 318 317 317 313 312 311 313 308 310 310 325 324 323 322 324 323 324
301 301 303 303 302 302 303 308 309 306 306 309 310 310 312 313 316 317 313 318 315 319 317 321 324 322 320 320 320 317 314 310 314 312 310 310 311 316 326 325 326 324 324 324 324
302 301 302 302 302 305 305 306 309 312 311 312 311 312 312 311 314 317 314 317 318 320 323 325 323 320 320 318 318 319 317 309 310 311 311 316 327 328 327 327 328 325 325 324 322
302 300 300 302 302 304 303 305 311 307 310 312 313 311 313 312 315 317 315 317 318 319 322 323 327 321 321 319 319 318 314 315 312 316 318 329 329 330 331 331 329 326 325 325 323
301 297 301 303 302 301 305 307 306 306 309 310 314 315 312 314 315 316 316 318 317 320 320 324 324 324 321 324 323 318 317 313 310 315 323 329 329 325 328 327 328 326 325 321 318
301 299 302 302 303 303 306 305 306 308 308 310 310 312 313 311 314 316 317 319 320 320 323 323 323 324 322 322 320 318 315 311 314 323 320 321 332 326 325 323 324 323 317 313 310
300 301 302 302 305 305 305 306 307 308 310 311 310 308 311 316 317 316 316 320 320 321 322 324 325 326 326 323 322 321 317 312 314 319 323 323 329 325 326 326 323 317 313 311 309
300 301 299 298 301 305 306 306 308 307 309 309 312 311 310 314 314 317 318 322 321 322 322 323 322 319 323 322 321 321 318 314 318 319 323 323 331 331 328 324 320 314 312 310 309
299 298 303 305 303 304 305 306 307 309 308 309 312 312 314 314 317 318 317 317 320 318 319 325 325 325 322 321 320 317 317 315 317 319 320 327 330 330 326 324 316 313 312 310 308
303 303 303 303 303 303 306 306 306 309 309 311 311 311 313 316 316 317 316 318 322 320 320 321 324 324 326 325 324 320 318 316 318 325 327 328 331 325 322 315 314 313 311 308 307
302 302 302 304 304 305 306 307 307 307 309 309 310 312 313 314 313 313 314 314 316 320 322 322 323 320 327 327 326 327 328 323 326 326 326 329 328 325 318 316 314 311 310 307 305

GFSSW_925_thetae_138.txt.gz
Theta_e
307 307 307 307 307 307 308 308 308 308 308 309 309 309 309 309 308 310 312 312 312 309 309 318 320 319 319 317 315 316 317 319 320 317 318 317 316 317 318 319 320 323 329 337 343
306 306 306 306 306 306 306 306 307 307 307 308 308 308 308 307 309 311 310 310 310 311 313 315 319 320 322 320 315 315 318 319 320 319 317 317 317 317 317 318 318 319 327 340 348
306 306 306 306 306 306 306 306 306 307 307 307 307 307 307 307 310 311 315 311 313 313 312 313 314 319 319 320 317 316 319 319 318 317 317 317 317 317 317 318 319 319 320 336 342
305 305 305 305 305 305 305 305 306 306 306 306 306 306 306 308 308 317 313 315 317 314 314 313 316 318 318 318 318 317 317 317 318 316 316 316 317 317 317 318 318 318 319 328 340
305 305 305 305 305 305 305 305 305 305 306 306 306 306 306 309 310 313 319 315 312 319 316 314 316 317 317 318 317 317 317 315 316 315 315 316 316 317 317 317 317 317 318 319 326
304 304 304 304 304 304 304 303 302 304 306 306 307 307 307 308 306 306 308 313 313 318 318 316 315 316 315 316 317 317 315 316 315 316 315 315 316 315 316 316 316 316 317 318 320
303 304 303 304 305 305 304 305 305 305 306 307 307 308 308 309 306 306 307 308 309 311 319 317 315 314 314 315 315 316 316 316 316 315 315 315 315 315 316 315 316 317 318 319 320
303 302 304 305 305 305 305 304 304 305 307 308 308 307 309 307 306 306 306 307 309 315 313 315 316 316 316 316 315 316 317 317 317 317 317 315 317 318 317 316 316 316 317 318 320
303 303 304 305 305 305 304 304 305 303 306 309 309 308 308 306 307 307 307 308 307 309 313 315 317 318 316 317 318 318 318 317 318 316 317 316 317 318 317 318 318 317 317 318 320
303 303 304 304 304 304 304 305 304 304 307 308 307 308 307 307 308 309 312 309 309 309 309 314 318 321 319 319 322 320 319 319 319 317 316 317 317 317 318 317 318 319 318 319 320
304 304 304 304 304 304 305 306 308 309 307 307 307 307 307 306 306 306 313 311 311 312 311 313 317 320 320 320 318 320 320 319 318 318 317 318 318 319 318 318 318 319 319 320 321
303 305 304 304 304 303 305 307 306 305 307 306 308 308 306 304 305 306 309 313 314 316 313 314 316 317 318 319 319 319 320 320 319 317 317 319 319 318 318 318 318 319 320 320 321
303 304 304 303 304 306 306 306 304 304 306 308 307 307 308 307 308 308 306 312 314 316 315 316 315 314 317 319 320 320 320 321 321 319 317 319 319 319 318 318 318 319 320 321 321
303 303 303 303 306 305 306 304 304 304 309 308 307 309 308 310 311 309 310 309 309 313 315 316 315 315 315 319 320 322 319 319 319 319 320 319 321 320 320 319 319 319 319 320 321
303 303 303 303 306 306 305 304 304 303 315 309 308 310 310 310 311 312 310 309 308 309 311 315 315 316 316 317 319 320 319 318 318 319 319 319 320 322 321 320 319 319 319 320 321
302 301 302 306 306 305 304 305 305 313 314 311 309 310 311 311 313 314 313 310 310 312 310 314 314 316 317 317 318 319 319 319 318 318 320 320 320 322 320 320 319 319 322 325 327
301 302 303 304 306 304 304 308 317 317 311 313 311 311 312 313 312 316 317 317 316 317 316 311 313 315 316 318 318 319 321 323 321 321 322 320 320 321 324 325 320 325 330 331 330
301 303 304 304 304 304 308 315 317 312 312 309 310 311 314 312 312 312 316 320 316 314 313 313 313 314 316 318 320 321 321 322 324 324 322 320 321 323 331 332 330 333 332 331 331
303 305 305 305 304 307 313 317 313 312 310 311 311 313 313 313 314 314 318 319 317 316 318 314 313 313 316 319 319 320 320 320 322 322 322 320 324 331 333 331 331 332 330 328 328
305 305 305 304 305 308 313 310 310 309 310 311 315 314 316 315 316 316 317 318 316 318 317 318 318 314 318 318 319 319 319 320 322 324 324 321 323 324 334 332 331 330 329 327 328
305 308 304 305 306 310 311 309 308 308 309 311 314 314 313 317 314 316 317 317 315 318 316 318 321 317 315 320 321 320 320 320 321 322 324 323 324 327 332 333 331 329 327 329 329
306 308 304 305 309 307 308 306 307 309 310 311 311 311 313 313 316 318 320 314 314 315 316 318 323 320 317 319 319 320 321 321 321 323 322 325 336 331 334 331 329 327 326 325 324
307 306 305 306 309 307 306 308 308 310 310 312 312 309 310 313 315 317 317 314 315 317 320 318 326 327 325 324 321 322 321 320 320 321 326 326 338 331 330 327 324 322 321 320 319
307 308 306 307 306 306 308 309 309 309 310 310 310 311 312 313 315 318 316 316 315 317 320 318 324 323 328 327 326 323 322 320 322 324 325 325 336 333 327 323 321 319 318 317 317
305 306 304 307 307 306 308 307 309 310 308 310 312 311 312 313 315 316 314 316 316 319 318 323 327 323 326 325 326 325 320 320 320 321 324 333 335 332 326 323 321 319 318 318 318
303 305 303 304 305 307 307 309 309 309 309 312 311 311 312 315 315 314 315 316 317 317 315 323 327 325 328 324 322 322 321 320 319 321 327 331 337 328 323 319 319 319 320 319 318
302 302 304 304 307 307 309 307 308 308 309 310 311 312 313 313 311 312 314 315 315 318 315 322 328 330 329 326 326 325 322 320 320 325 329 334 331 323 320 319 319 319 319 318 316

GFSSW_925_thetae_141.txt.gz
Theta_e
307 307 308 307 307 307 307 307 307 308 308 308 308 309 309 309 308 310 313 314 314 314 312 316 319 315 318 323 321 319 320 321 321 321 322 324 321 322 322 322 323 324 325 341 346
307 307 307 307 307 307 307 307 307 307 307 308 308 308 308 308 308 309 309 310 312 312 314 314 316 321 319 322 323 321 320 321 322 323 323 323 322 321 320 320 321 322 325 337 344
306 306 306 306 306 306 306 306 306 306 307 307 307 308 307 307 310 314 315 314 313 312 311 313 314 320 321 321 324 321 320 321 321 322 323 322 322 321 320 321 321 321 323 332 342
306 305 305 306 306 306 306 306 306 306 307 307 307 306 307 307 309 322 314 313 314 313 314 315 317 318 322 321 323 321 319 320 321 322 321 321 321 321 321 321 322 322 322 326 335
305 305 305 305 305 305 306 306 306 306 307 307 307 307 308 310 310 308 313 314 319 318 316 319 318 318 320 321 322 323 321 320 320 321 321 319 320 320 321 321 322 321 321 321 330
304 305 305 305 306 306 306 305 305 305 306 308 308 307 309 311 306 306 308 311 316 316 320 319 319 318 319 321 321 321 321 321 320 319 319 318 319 319 320 321 321 320 320 320 321
304 304 305 306 305 305 305 305 305 305 306 308 309 309 310 311 307 306 307 308 309 311 316 320 319 318 319 321 321 321 321 320 320 319 319 319 318 319 320 320 319 319 319 320 320
304 304 305 306 305 305 305 305 303 304 304 305 310 309 311 309 308 308 308 308 309 311 311 314 319 318 318 319 318 319 320 321 321 319 319 318 319 319 320 320 319 319 320 320 321
304 304 305 305 306 305 305 303 304 306 304 308 311 310 312 308 309 309 309 309 308 309 312 315 315 320 319 318 318 319 320 320 321 321 319 318 318 320 321 320 320 320 320 320 321
304 305 304 305 305 305 304 305 308 309 308 309 309 311 311 310 308 309 308 311 312 310 310 317 319 320 321 320 323 321 321 321 320 322 320 320 320 321 321 320 321 321 320 320 320
304 305 304 304 304 304 306 310 311 313 311 310 311 311 310 310 308 308 308 308 313 311 311 312 319 323 323 321 320 322 323 322 322 321 320 320 321 321 321 321 321 322 322 321 321
303 303 304 304 304 303 306 311 309 308 309 309 309 309 309 309 309 310 306 312 313 314 313 311 313 317 320 321 322 322 324 324 323 322 320 321 321 321 321 321 321 322 322 322 322
301 302 304 304 304 308 309 309 307 307 309 310 310 309 310 311 311 311 308 308 314 315 316 313 311 312 317 321 322 322 323 324 324 322 322 321 322 322 322 322 321 322 322 322 322
301 301 302 303 307 309 310 308 308 306 312 313 311 310 311 312 314 312 311 308 311 315 314 315 312 313 313 317 320 323 322 323 322 323 322 321 324 324 323 322 322 322 322 323 323
300 301 303 303 308 310 308 307 307 307 322 313 312 311 312 312 313 313 311 312 314 311 312 318 314 315 315 314 318 321 321 322 324 324 323 322 323 325 323 323 322 322 322 323 323
300 302 303 308 308 308 307 308 308 317 322 316 312 312 313 314 315 316 314 312 310 314 313 311 314 314 316 315 316 319 321 322 323 324 325 325 323 324 325 324 323 323 322 322 323
301 304 303 306 309 307 308 311 320 319 314 314 313 313 314 316 315 318 318 315 316 317 315 311 310 314 315 316 315 318 322 324 324 323 326 325 323 326 326 324 323 323 322 322 323
302 306 309 307 307 308 311 316 320 315 314 311 312 314 318 315 316 314 315 318 314 317 318 316 310 314 315 316 317 320 324 327 327 326 324 324 324 323 328 327 324 322 325 327 328
305 309 309 306 308 309 316 320 316 315 313 313 313 315 315 315 314 317 318 320 317 317 318 319 311 313 315 319 318 319 323 324 321 322 323 325 329 335 333 333 334 334 333 332 330
306 309 310 307 309 311 316 313 313 311 312 314 317 315 317 315 315 316 319 319 317 317 317 321 314 312 317 318 320 321 322 325 323 325 324 324 330 333 334 336 335 335 333 334 334
309 312 308 309 310 312 315 313 311 310 311 315 316 316 315 315 315 317 321 317 314 315 318 320 322 317 315 317 323 321 322 324 323 323 327 327 328 330 333 334 334 332 331 332 333
310 312 308 309 312 311 312 310 309 310 311 312 313 314 313 313 316 316 321 314 313 315 320 318 323 318 317 319 318 318 321 323 325 327 326 326 340 330 333 334 332 332 332 333 332
311 311 309 310 314 312 310 310 311 311 312 313 313 313 311 314 316 317 317 316 315 316 317 319 324 326 323 320 321 322 321 320 325 328 328 329 345 336 333 332 331 331 329 330 330
309 309 309 310 310 310 311 311 311 311 311 311 313 313 314 314 314 318 317 316 315 316 317 319 323 324 326 323 324 325 322 322 325 328 326 331 339 334 331 330 329 327 326 325 325
308 308 307 310 310 309 310 311 311 312 310 311 313 313 315 314 315 317 315 315 315 318 319 317 326 319 323 321 319 321 325 323 325 325 328 338 337 332 328 326 325 324 323 323 323
307 306 306 308 310 312 310 312 310 311 311 314 313 314 315 317 316 316 316 316 317 317 318 320 330 323 322 323 326 323 322 321 322 324 327 332 336 329 324 323 323 323 323 323 322
304 303 305 308 311 311 311 310 311 312 312 312 313 315 315 315 315 315 316 318 318 318 320 323 326 325 330 327 322 326 322 323 323 323 327 337 330 325 324 323 323 323 323 322 321

GFSSW_925_thetae_144.txt.gz
Theta_e
307 307 307 307 307 307 307 307 307 307 308 308 308 309 309 309 308 308 309 309 312 315 314 314 316 315 314 323 323 322 321 321 320 321 321 324 324 325 325 325 327 329 331 347 347
307 307 307 307 307 307 307 307 307 307 307 308 308 308 308 308 307 308 307 308 309 309 315 316 316 320 316 318 324 324 323 320 321 322 322 323 324 324 322 322 323 324 326 343 345
306 306 307 307 307 307 307 307 307 308 308 308 308 308 307 307 310 312 313 312 313 314 312 314 316 315 320 317 319 324 324 321 320 322 323 323 323 324 322 321 321 321 323 336 343
306 306 306 306 306 307 307 307 307 308 308 308 308 308 307 308 308 321 312 310 311 315 314 313 315 317 316 320 319 320 323 322 322 322 322 323 324 323 322 322 322 322 324 330 336
305 306 306 306 306 307 306 306 307 307 308 308 308 308 309 310 311 308 308 310 315 316 316 317 317 317 318 317 321 319 321 323 322 321 321 322 322 322 322 322 323 323 323 323 333
305 306 306 305 306 306 306 306 307 306 307 309 309 308 309 312 309 309 308 308 309 314 317 319 320 319 319 319 321 322 321 323 322 321 321 321 321 321 321 322 322 322 322 322 326
304 304 305 305 306 307 307 307 305 304 303 308 310 310 310 311 309 309 309 309 308 309 315 317 318 321 320 320 320 321 322 323 323 322 321 321 320 320 320 321 322 322 322 321 322
304 304 304 304 304 306 306 305 302 303 304 305 311 311 312 310 310 310 310 310 309 309 310 310 316 319 322 320 320 321 322 323 323 323 322 320 320 320 320 321 321 321 321 321 322
304 302 301 303 305 305 306 302 304 308 308 307 311 312 315 311 311 311 310 311 309 309 309 311 312 316 321 321 321 322 324 323 322 322 322 320 319 321 321 321 322 322 321 321 322
303 300 302 303 305 306 304 307 311 310 311 310 311 314 314 313 311 310 309 310 312 313 310 311 314 315 319 323 322 322 323 324 323 323 322 322 321 320 321 321 322 322 322 322 323
303 300 301 303 304 303 305 310 312 313 313 313 312 313 312 311 310 311 311 310 309 311 316 310 313 319 317 322 320 321 321 321 322 322 323 323 322 320 322 321 322 322 323 322 323
300 300 301 303 302 303 307 313 311 310 311 311 311 311 310 310 311 312 311 309 309 311 314 310 311 314 316 319 322 321 321 322 322 322 323 324 322 322 322 322 323 323 323 324 324
300 300 302 303 303 309 312 311 310 309 311 312 312 312 311 312 312 313 312 312 311 311 312 312 312 311 316 317 321 323 322 323 324 323 322 323 322 323 322 323 322 324 324 325 324
300 301 302 303 309 311 313 309 310 309 313 317 313 313 313 313 314 314 312 312 312 309 311 314 313 310 313 317 319 323 322 322 324 325 325 323 323 325 324 323 323 324 324 325 324
300 301 303 302 307 312 310 310 311 310 323 315 314 312 313 314 313 316 313 313 314 313 310 317 316 314 311 313 317 321 321 322 323 325 326 324 323 326 325 325 324 324 324 325 325
301 303 305 309 310 311 309 310 313 320 319 315 313 313 314 316 317 317 315 313 313 315 314 314 313 314 311 311 313 319 321 322 323 326 329 325 323 324 326 326 326 325 324 325 325
301 305 306 308 311 309 310 314 321 319 314 315 314 314 316 318 316 319 319 315 318 319 316 314 312 312 315 316 313 315 321 326 326 329 332 326 324 326 327 326 326 325 324 325 325
304 309 310 311 310 311 312 319 320 315 314 313 314 315 318 315 315 315 317 321 315 316 321 316 313 312 315 317 318 315 320 329 327 333 331 328 327 327 326 328 326 325 324 325 325
306 312 312 310 311 312 317 319 317 317 314 314 316 315 315 314 314 315 317 317 318 314 321 317 316 310 313 315 318 315 318 324 325 325 325 327 327 330 330 328 326 325 325 325 326
306 312 313 310 312 313 317 316 315 312 312 315 319 316 316 315 315 316 318 318 317 317 317 320 322 312 313 316 317 318 319 325 328 327 327 325 330 333 335 333 328 328 332 334 338
311 314 311 311 312 313 319 313 312 312 312 314 317 317 316 316 314 315 319 317 314 315 317 317 323 313 315 318 321 319 321 324 326 326 329 328 330 335 337 336 338 339 337 336 336
312 313 310 311 314 313 313 312 311 311 312 312 315 315 315 314 316 315 318 317 314 315 318 320 323 323 314 318 319 320 321 325 330 330 326 331 337 333 338 338 337 336 338 338 339
313 311 308 311 315 314 312 312 312 311 312 314 313 314 315 314 315 316 316 315 316 315 316 320 323 324 321 318 319 324 322 322 327 329 328 331 341 336 337 335 333 333 335 336 335
312 309 310 311 312 313 314 313 312 311 312 312 314 314 316 317 315 317 316 316 315 316 318 317 320 326 319 317 320 324 322 320 327 330 329 331 341 337 335 334 334 333 333 333 333
308 308 309 311 312 313 313 313 313 313 311 313 314 315 316 316 318 317 317 317 316 317 317 320 324 322 322 320 321 320 322 322 323 325 331 336 337 335 334 333 332 330 328 328 328
307 307 307 309 312 312 312 313 313 312 313 316 315 314 316 317 317 317 318 319 319 317 316 319 326 325 324 324 322 320 321 323 322 323 328 335 335 330 328 327 327 327 326 326 325
306 305 306 309 311 312 312 312 312 313 313 314 314 315 316 315 315 316 317 318 318 319 321 316 325 326 325 322 324 323 324 324 322 327 332 338 332 327 327 326 325 324 324 324 322

GFSSW_925_thetae_147.txt.gz
Theta_e
307 307 307 308 308 308 307 307 308 308 308 308 308 308 308 308 307 307 307 306 309 310 314 314 314 314 316 311 315 320 320 320 319 316 315 317 317 319 320 321 324 325 349 352 354
307 307 307 307 307 307 307 308 308 308 309 308 309 308 308 308 307 308 304 307 307 309 309 315 316 316 314 311 313 321 322 321 318 316 317 316 317 318 321 321 322 335 347 349 353
306 307 307 307 307 307 307 307 307 308 308 309 309 308 308 308 307 306 312 313 313 311 316 311 313 315 314 312 312 318 324 320 319 318 317 318 318 318 319 318 319 319 346 345 345
306 306 307 307 307 307 307 308 308 308 308 309 308 308 307 308 307 317 313 312 308 313 317 314 311 312 314 313 313 312 319 321 320 319 319 318 319 319 319 317 319 319 331 343 342
305 306 306 306 306 306 306 307 308 308 308 308 308 308 308 309 309 307 309 309 309 312 315 314 312 311 313 315 314 315 314 317 320 320 320 319 319 318 318 319 318 318 319 338 340
305 305 305 305 304 306 306 307 307 307 308 309 309 308 309 309 307 308 309 309 309 311 313 315 314 313 313 314 314 314 317 316 317 319 320 320 318 317 318 319 320 320 320 319 335
305 303 301 301 301 305 306 306 307 305 307 308 310 309 308 308 308 309 309 310 310 310 309 309 316 317 317 317 317 316 316 319 318 318 320 319 318 318 318 319 318 319 319 319 327
302 300 298 300 302 305 305 303 304 307 306 308 310 310 311 310 310 310 310 311 311 310 309 309 310 309 311 316 319 318 318 318 319 319 320 317 318 318 317 317 317 319 318 318 320
302 300 299 300 303 305 303 306 308 311 310 310 311 311 313 313 313 312 311 311 311 311 309 309 309 309 309 314 318 320 319 319 319 320 320 321 319 318 316 316 316 317 317 317 318
302 299 300 301 304 305 302 307 312 312 312 313 311 312 312 314 313 312 311 310 311 310 312 312 308 309 311 313 322 323 319 319 319 320 321 321 320 317 317 316 317 317 317 316 316
302 300 300 302 304 302 304 306 309 312 310 309 310 313 312 311 311 311 311 311 311 310 309 312 313 310 311 312 315 321 320 320 320 320 320 320 320 317 317 316 316 316 316 315 316
301 300 301 303 302 305 307 309 310 309 310 310 311 311 311 311 311 311 311 312 312 310 308 308 314 311 311 312 314 319 321 320 320 321 320 319 319 318 318 317 316 317 316 316 316
300 301 302 303 303 310 312 311 310 310 310 311 313 313 312 312 312 311 313 314 313 312 310 310 313 312 310 311 315 316 321 320 320 320 321 320 320 319 319 318 317 318 317 317 317
300 302 303 303 309 308 311 310 311 310 312 316 314 313 313 312 314 314 313 314 313 313 312 311 312 313 312 310 313 317 319 321 321 320 320 320 321 320 319 319 318 318 317 317 317
301 302 304 304 305 309 310 310 312 311 321 314 313 312 313 315 316 316 315 313 313 314 313 314 314 314 313 311 311 315 317 320 321 322 323 321 320 321 319 320 320 318 318 318 317
302 304 306 307 309 311 310 310 313 318 319 313 312 312 314 316 315 316 316 313 313 315 315 314 313 313 315 314 311 314 316 319 320 321 325 325 319 318 320 320 320 319 319 319 318
303 306 309 308 310 311 312 313 317 317 313 314 312 313 315 314 314 314 316 316 315 317 318 316 314 311 315 316 315 311 315 321 324 324 333 326 324 319 320 320 319 319 319 319 318
304 310 313 311 311 312 313 317 319 314 313 312 313 314 313 313 314 313 315 319 316 317 318 323 318 313 313 314 316 311 311 328 331 327 327 326 328 321 320 321 320 320 318 318 317
307 311 313 313 311 312 314 316 316 313 312 313 313 314 314 316 314 313 314 315 317 313 319 322 317 312 312 314 316 318 314 318 324 323 326 327 326 329 324 324 320 320 319 318 317
306 311 314 309 312 313 315 316 313 312 312 313 316 317 319 315 315 315 314 318 315 315 316 318 321 314 312 314 315 317 315 318 326 331 331 328 326 328 330 328 321 319 318 325 340
309 314 310 311 312 311 311 313 312 311 311 312 315 317 316 317 315 317 315 317 314 315 315 318 320 316 312 316 319 318 320 320 322 326 325 331 329 330 338 322 328 334 337 341 341
309 313 309 311 311 311 311 313 311 312 311 312 314 314 316 315 317 316 316 316 315 315 317 317 322 321 312 316 317 317 318 321 325 326 327 330 333 334 335 335 335 334 341 340 338
310 312 309 310 314 314 313 314 313 312 312 313 314 314 314 316 316 316 316 315 316 317 315 317 322 320 317 320 320 320 319 321 322 326 328 333 337 336 334 335 336 340 339 337 336
310 308 309 308 310 312 313 314 312 312 312 313 314 314 315 316 315 317 316 316 316 318 317 317 320 323 319 318 321 323 323 320 322 329 333 334 341 336 332 332 334 334 334 334 333
307 307 307 308 309 309 313 312 312 313 312 314 315 315 315 316 316 318 316 316 316 317 316 319 321 321 322 323 319 322 322 323 323 326 331 334 336 335 333 332 331 331 331 329 327
307 306 306 306 308 310 312 312 311 312 314 315 314 314 314 316 316 316 316 317 319 317 316 318 322 322 322 322 322 320 320 321 321 323 333 334 337 333 331 329 331 329 327 325 322
305 306 306 307 308 309 311 311 311 312 312 312 312 314 315 314 313 313 314 315 317 318 319 316 323 326 326 323 324 323 321 321 324 331 331 335 333 330 328 328 326 325 322 321 319